Weather History for Riverton, WY

Change the Weather History Date:

Sunday, October 6, 2013

  Actual Average Record
Temperature  
Mean Temperature 42 °F 49 °F  
Max Temperature 55 °F 63 °F 73 °F (2003)
Min Temperature 28 °F 36 °F 18 °F (2009)
Degree Days  
Heating Degree Days 23 16  
Month to date heating degree days 147 88  
Since 1 July heating degree days 334 352  
Cooling Degree Days 0 0  
Month to date cooling degree days 0 0  
Year to date cooling degree days 798 494  
Moisture  
Dew Point 33 °F    
Average Humidity 73    
Maximum Humidity 92    
Minimum Humidity 54    
Precipitation  
Precipitation 0.00 in 0.04 in 0.65 in (2011)
Month to date precipitation 1.11 0.27  
Year to date precipitation 8.18 7.99  
Snow  
Snow 0.00 in - - ()
Month to date snowfall 6.8  
Since 1 July snowfall 14.1  
Since 1 September snowfall 14.1  
Snow Depth 0.00 in    
Sea Level Pressure  
Sea Level Pressure 30.31 in    
Wind  
Wind Speed 4 mph (WSW)    
Max Wind Speed 16 mph    
Max Gust Speed 17 mph    
Visibility 10 miles    
Events      
T = Trace of Precipitation, MM = Missing Value Source: NWS Daily Summary

Daily Weather History Graph

Daily Weather History Graph

Search for Another Location

Airport:

Trip Planner

Search our weather history database for the weather conditions in past years. The results will help you decide how hot, cold, wet, or windy it might be!

Date:

Astronomy

Oct. 06, 2013 Rise Set
Actual Time 7:17 AM MDT 6:45 PM MDT
Civil Twilight 6:48 AM MDT 7:14 PM MDT
Nautical Twilight 6:15 AM MDT 7:46 PM MDT
Astronomical Twilight 5:42 AM MDT 8:19 PM MDT
Moon 9:08 AM MDT (10/6) 7:43 PM MDT (10/6)
Length of Visible Light 12h 25m
Length of Day
11h 28m
Waxing Crescent, 4% of the Moon is Illuminated
Oct 6
Waxing Crescent
Oct 11
First Quarter
Oct 18
Full
Oct 26
Last Quarter
Nov 3
New

Hourly Weather History & Observations

Time (MDT) Temp. Windchill Dew Point Humidity Pressure Visibility Wind Dir Wind Speed Gust Speed Precip Events Conditions
12:53 AM 32.0 °F 27.5 °F 27.0 °F 82% 30.40 in 10.0 mi SSW 4.6 mph - N/A   Clear
1:53 AM 30.9 °F 25.2 °F 27.0 °F 85% 30.39 in 10.0 mi NW 5.8 mph - N/A   Clear
2:53 AM 32.0 °F 26.4 °F 27.0 °F 82% 30.37 in 10.0 mi West 5.8 mph - N/A   Clear
3:53 AM 30.9 °F 27.5 °F 27.0 °F 85% 30.36 in 10.0 mi North 3.5 mph - N/A   Clear
4:53 AM 30.9 °F 26.2 °F 27.0 °F 85% 30.34 in 10.0 mi NNE 4.6 mph - N/A   Clear
5:53 AM 32.0 °F 28.7 °F 27.0 °F 82% 30.34 in 10.0 mi East 3.5 mph - N/A   Clear
6:53 AM 28.9 °F 25.2 °F 26.1 °F 89% 30.38 in 10.0 mi North 3.5 mph - N/A   Clear
7:53 AM 32.0 °F - 28.9 °F 88% 30.36 in 10.0 mi Calm Calm - 0.00 in   Clear
8:53 AM 34.0 °F 31.0 °F 30.9 °F 89% 30.38 in 10.0 mi NE 3.5 mph - N/A   Clear
9:53 AM 37.0 °F - 32.0 °F 82% 30.37 in 10.0 mi Calm Calm - N/A   Clear
10:53 AM 39.0 °F 34.8 °F 34.0 °F 82% 30.36 in 10.0 mi East 5.8 mph - N/A   Clear
11:53 AM 43.0 °F 40.3 °F 34.0 °F 71% 30.35 in 10.0 mi ESE 4.6 mph - N/A   Clear
12:53 PM 46.9 °F - 36.0 °F 66% 30.32 in 10.0 mi Variable 4.6 mph - N/A   Clear
1:53 PM 50.0 °F - 37.0 °F 61% 30.29 in 10.0 mi Variable 3.5 mph - N/A   Clear
2:53 PM 53.1 °F - 37.9 °F 57% 30.26 in 10.0 mi SE 5.8 mph - N/A   Clear
3:53 PM 53.1 °F - 37.0 °F 55% 30.27 in 10.0 mi SSE 5.8 mph - N/A   Clear
4:53 PM 54.0 °F - 37.0 °F 53% 30.25 in 10.0 mi Calm Calm - N/A   Clear
5:53 PM 55.0 °F - 39.9 °F 57% 30.24 in 10.0 mi ESE 3.5 mph - N/A   Clear
6:53 PM 51.1 °F - 39.9 °F 66% 30.26 in 10.0 mi Calm Calm - N/A   Clear
7:53 PM 45.0 °F - 37.9 °F 76% 30.26 in 10.0 mi Calm Calm - N/A   Clear
8:53 PM 44.1 °F 41.5 °F 37.0 °F 76% 30.25 in 10.0 mi SW 4.6 mph - N/A   Clear
9:53 PM 39.9 °F 37.8 °F 36.0 °F 86% 30.25 in 10.0 mi West 3.5 mph - N/A   Clear
10:53 PM 41.0 °F 37.1 °F 36.0 °F 82% 30.23 in 9.0 mi WSW 5.8 mph - N/A   Clear
11:53 PM 42.1 °F 39.2 °F 36.0 °F 79% 30.19 in 10.0 mi West 4.6 mph - N/A   Clear